• In Hungary
  • List of Countries
  • For 7 days
  • Water Temperature
  • Satellite Maps
  • Weather Map
  • News
  • Weather Widgets
  • user-avatar
    Login

    Hourly Weather Wierzchocino

    Today, 24 November, Friday

    Time Temperature Precipitation Wind Pressure Humidity
    00:00 +6°C° 0 mm 7 mps 755 mmHg 81%
    01:00 +6°C° 0 mm 7 mps 755 mmHg 84%
    02:00 +7°C° 0 mm 6 mps 755 mmHg 86%
    03:00 +5°C° 0 mm 6 mps 756 mmHg 89%
    04:00 +5°C° 0 mm 6 mps 756 mmHg 91%
    05:00 +6°C° 0 mm 5 mps 756 mmHg 92%
    06:00 +6°C° 0 mm 5 mps 756 mmHg 94%
    07:00 +5°C° 0 mm 5 mps 756 mmHg 95%
    08:00 +6°C° 0 mm 5 mps 756 mmHg 94%
    09:00 +6°C° 0 mm 5 mps 756 mmHg 93%
    10:00 +7°C° 0 mm 5 mps 756 mmHg 93%
    11:00 +7°C° 0 mm 5 mps 756 mmHg 90%
    12:00 +8°C° 0 mm 5 mps 755 mmHg 88%
    13:00 +9°C° 0 mm 6 mps 755 mmHg 85%
    14:00 +9°C° 0.3 mm 6 mps 754 mmHg 84%
    15:00 +9°C° 0.3 mm 7 mps 754 mmHg 82%
    16:00 +9°C° 0.3 mm 8 mps 753 mmHg 80%
    17:00 +9°C° 0.1 mm 8 mps 753 mmHg 81%
    18:00 +10°C° 0.1 mm 8 mps 754 mmHg 82%
    19:00 +10°C° 0.1 mm 8 mps 754 mmHg 82%
    20:00 +9°C° 0.1 mm 7 mps 754 mmHg 83%
    21:00 +8°C° 0.1 mm 7 mps 755 mmHg 83%
    22:00 +6°C° 0.1 mm 7 mps 755 mmHg 84%
    23:00 +7°C° 0 mm 6 mps 756 mmHg 85%

    Tomorrow, 25 November, Saturday

    Time Temperature Precipitation Wind Pressure Humidity
    00:00 +6°C° 0 mm 5 mps 757 mmHg 87%
    01:00 +6°C° 0 mm 5 mps 757 mmHg 88%
    02:00 +5°C° 0 mm 4 mps 757 mmHg 89%
    03:00 +5°C° 0 mm 3 mps 757 mmHg 90%
    04:00 +6°C° 0 mm 2 mps 757 mmHg 92%
    05:00 +6°C° 0 mm 2 mps 757 mmHg 92%
    06:00 +7°C° 0 mm 1 mps 757 mmHg 92%
    07:00 +7°C° 0 mm 1 mps 757 mmHg 92%
    08:00 +7°C° 0.4 mm 1 mps 756 mmHg 92%
    09:00 +6°C° 0.4 mm 2 mps 756 mmHg 92%
    10:00 +6°C° 0.4 mm 2 mps 756 mmHg 92%
    11:00 +5°C° 1.6 mm 3 mps 755 mmHg 92%
    12:00 +5°C° 1.6 mm 4 mps 754 mmHg 93%
    13:00 +5°C° 1.6 mm 5 mps 754 mmHg 93%
    14:00 +5°C° 2.2 mm 5 mps 753 mmHg 94%
    15:00 +5°C° 2.2 mm 5 mps 753 mmHg 94%
    16:00 +4°C° 2.2 mm 6 mps 752 mmHg 94%
    17:00 +4°C° 1.5 mm 7 mps 752 mmHg 93%
    18:00 +4°C° 1.5 mm 8 mps 752 mmHg 92%
    19:00 +4°C° 1.5 mm 8 mps 751 mmHg 90%
    20:00 +4°C° 0.4 mm 8 mps 752 mmHg 88%
    21:00 +4°C° 0.4 mm 8 mps 752 mmHg 85%
    22:00 +4°C° 0.4 mm 8 mps 753 mmHg 83%
    23:00 +4°C° 0.1 mm 7 mps 753 mmHg 81%

    Day after tomorrow, 26 November, Sunday

    Time Temperature Precipitation Wind Pressure Humidity
    00:00 +4°C° 0.1 mm 7 mps 754 mmHg 80%
    01:00 +4°C° 0.1 mm 7 mps 754 mmHg 78%
    02:00 +3°C° 0 mm 6 mps 755 mmHg 79%
    03:00 +3°C° 0 mm 6 mps 755 mmHg 80%
    04:00 +2°C° 0 mm 6 mps 756 mmHg 81%
    05:00 +2°C° 0 mm 6 mps 756 mmHg 81%
    06:00 +2°C° 0 mm 6 mps 757 mmHg 81%
    07:00 +2°C° 0 mm 6 mps 758 mmHg 81%
    08:00 +2°C° 0 mm 6 mps 758 mmHg 79%
    09:00 +3°C° 0 mm 7 mps 758 mmHg 78%
    10:00 +3°C° 0 mm 7 mps 759 mmHg 76%
    11:00 +2°C° 0 mm 8 mps 759 mmHg 75%
    12:00 +2°C° 0 mm 8 mps 759 mmHg 73%
    13:00 +2°C° 0 mm 8 mps 759 mmHg 72%
    14:00 +2°C° 0 mm 8 mps 759 mmHg 74%
    15:00 +1°C° 0 mm 8 mps 759 mmHg 76%
    16:00 +1°C° 0 mm 8 mps 759 mmHg 79%
    17:00 +1°C° 0.3 mm 9 mps 760 mmHg 79%
    18:00 0°C° 0.3 mm 9 mps 760 mmHg 79%
    19:00 0°C° 0.3 mm 9 mps 760 mmHg 80%
    20:00 0°C° 0.1 mm 9 mps 760 mmHg 81%
    21:00 0°C° 0.1 mm 9 mps 760 mmHg 82%
    22:00 0°C° 0.1 mm 9 mps 760 mmHg 84%
    23:00 0°C° 0.1 mm 9 mps 760 mmHg 84%

    27 November, Monday

    Time Temperature Precipitation Wind Pressure Humidity
    00:00 0°C° 0.1 mm 9 mps 760 mmHg 85%
    01:00 -1°C° 0.1 mm 9 mps 761 mmHg 86%
    02:00 0°C° 0.1 mm 9 mps 761 mmHg 85%
    03:00 0°C° 0.1 mm 9 mps 761 mmHg 85%
    04:00 0°C° 0.1 mm 9 mps 761 mmHg 84%
    05:00 0°C° 0.2 mm 9 mps 761 mmHg 84%
    06:00 0°C° 0.2 mm 9 mps 761 mmHg 84%
    07:00 0°C° 0.2 mm 8 mps 761 mmHg 84%
    08:00 0°C° 0.2 mm 8 mps 762 mmHg 83%
    09:00 0°C° 0.2 mm 8 mps 762 mmHg 83%
    10:00 0°C° 0.2 mm 8 mps 762 mmHg 83%
    11:00 0°C° 0.1 mm 8 mps 762 mmHg 82%
    12:00 +1°C° 0.1 mm 8 mps 762 mmHg 81%
    13:00 +1°C° 0.1 mm 8 mps 762 mmHg 80%
    14:00 +1°C° 0.2 mm 8 mps 762 mmHg 81%
    15:00 +1°C° 0.2 mm 8 mps 762 mmHg 81%
    16:00 +2°C° 0.2 mm 7 mps 762 mmHg 81%
    17:00 0°C° 0.1 mm 7 mps 762 mmHg 82%
    18:00 0°C° 0.1 mm 7 mps 762 mmHg 83%
    19:00 0°C° 0.1 mm 7 mps 762 mmHg 83%
    20:00 0°C° 0.1 mm 7 mps 762 mmHg 84%
    21:00 0°C° 0.1 mm 7 mps 762 mmHg 84%
    22:00 0°C° 0.1 mm 7 mps 762 mmHg 84%
    23:00 0°C° 0.1 mm 7 mps 762 mmHg 84%

    28 November, Tuesday

    Time Temperature Precipitation Wind Pressure Humidity
    00:00 0°C° 0.1 mm 7 mps 761 mmHg 84%
    01:00 0°C° 0.1 mm 7 mps 761 mmHg 84%
    02:00 0°C° 0.1 mm 7 mps 761 mmHg 84%
    03:00 0°C° 0.1 mm 7 mps 761 mmHg 84%
    04:00 -1°C° 0.1 mm 8 mps 760 mmHg 83%
    05:00 -1°C° 0.1 mm 8 mps 760 mmHg 82%
    06:00 -1°C° 0.1 mm 8 mps 760 mmHg 80%
    07:00 -1°C° 0.1 mm 8 mps 759 mmHg 78%
    08:00 -1°C° 0.1 mm 8 mps 759 mmHg 77%
    09:00 0°C° 0.1 mm 9 mps 759 mmHg 75%
    10:00 0°C° 0.1 mm 9 mps 759 mmHg 74%
    11:00 0°C° 0.2 mm 9 mps 759 mmHg 74%
    12:00 0°C° 0.2 mm 9 mps 758 mmHg 73%
    13:00 0°C° 0.2 mm 8 mps 758 mmHg 73%
    14:00 0°C° 0.3 mm 8 mps 758 mmHg 74%
    15:00 0°C° 0.3 mm 8 mps 757 mmHg 76%
    16:00 0°C° 0.3 mm 8 mps 757 mmHg 77%
    17:00 0°C° 0.2 mm 8 mps 757 mmHg 78%
    18:00 0°C° 0.2 mm 8 mps 756 mmHg 79%
    19:00 -1°C° 0.2 mm 8 mps 756 mmHg 80%
    20:00 -1°C° 0.2 mm 7 mps 756 mmHg 80%
    21:00 -1°C° 0.2 mm 7 mps 755 mmHg 81%
    22:00 -1°C° 0.2 mm 7 mps 755 mmHg 82%
    23:00 -1°C° 0.3 mm 7 mps 754 mmHg 82%

    29 November, Wednesday

    Time Temperature Precipitation Wind Pressure Humidity
    00:00 -1°C° 0.3 mm 8 mps 754 mmHg 82%
    01:00 -1°C° 0.3 mm 8 mps 753 mmHg 82%
    02:00 -1°C° 0.1 mm 8 mps 753 mmHg 81%
    03:00 -1°C° 0.1 mm 8 mps 752 mmHg 79%
    04:00 -1°C° 0.1 mm 8 mps 752 mmHg 78%
    05:00 -1°C° 0.2 mm 8 mps 751 mmHg 79%
    06:00 -1°C° 0.2 mm 8 mps 751 mmHg 81%
    07:00 -1°C° 0.2 mm 9 mps 751 mmHg 82%
    08:00 -1°C° 0.1 mm 8 mps 751 mmHg 82%
    09:00 -1°C° 0.1 mm 8 mps 751 mmHg 82%
    10:00 0°C° 0.1 mm 8 mps 751 mmHg 83%
    11:00 0°C° 0 mm 8 mps 750 mmHg 82%
    12:00 +1°C° 0 mm 8 mps 750 mmHg 81%
    13:00 +1°C° 0 mm 8 mps 750 mmHg 80%
    14:00 +1°C° 0 mm 8 mps 750 mmHg 82%
    15:00 +2°C° 0 mm 7 mps 750 mmHg 84%
    16:00 +2°C° 0 mm 7 mps 750 mmHg 85%
    17:00 +2°C° 0 mm 7 mps 750 mmHg 86%
    18:00 0°C° 0 mm 8 mps 750 mmHg 86%
    19:00 0°C° 0 mm 8 mps 750 mmHg 87%
    20:00 0°C° 0 mm 8 mps 750 mmHg 87%
    21:00 0°C° 0 mm 8 mps 750 mmHg 87%
    22:00 0°C° 0 mm 8 mps 750 mmHg 87%
    23:00 0°C° 0.1 mm 8 mps 750 mmHg 87%
    Show more